Weather History for Pocatello, ID

Change the Weather History Date:

Sunday, March 30, 2014

  Actual Average Record
Temperature  
Mean Temperature 36 °F 42 °F  
Max Temperature 39 °F 54 °F 73 °F (2004)
Min Temperature 32 °F 30 °F 16 °F (1954)
Degree Days  
Heating Degree Days 29 23  
Month to date heating degree days 701 815  
Since 1 July heating degree days 5681 6088  
Cooling Degree Days 0 0  
Month to date cooling degree days 0 0  
Year to date cooling degree days 0 0  
Moisture  
Dew Point 33 °F    
Average Humidity 88    
Maximum Humidity 100    
Minimum Humidity 75    
Precipitation  
Precipitation 0.82 in 0.04 in 0.82 in (2014)
Month to date precipitation 2.29 1.22  
Year to date precipitation 4.00 3.18  
Snow  
Snow 5.30 in - - ()
Month to date snowfall 7.2  
Since 1 July snowfall 26.1  
Snow Depth 1.00 in    
Sea Level Pressure  
Sea Level Pressure 29.76 in    
Wind  
Wind Speed 12 mph (SW)    
Max Wind Speed 26 mph    
Max Gust Speed 31 mph    
Visibility 4 miles    
Events Fog , Rain , Snow    
T = Trace of Precipitation, MM = Missing Value Source: NWS Daily Summary

Daily Weather History Graph

Daily Weather History Graph

Search for Another Location

Airport:

Trip Planner

Search our weather history database for the weather conditions in past years. The results will help you decide how hot, cold, wet, or windy it might be!

Date:

Astronomy

Mar. 30, 2014 Rise Set
Actual Time 7:15 AM MDT 7:54 PM MDT
Civil Twilight 6:47 AM MDT 8:22 PM MDT
Nautical Twilight 6:13 AM MDT 8:56 PM MDT
Astronomical Twilight 5:38 AM MDT 9:31 PM MDT
Moon 7:03 AM MDT (3/30) 8:12 PM MDT (3/30)
Length of Visible Light 13h 35m
Length of Day
12h 38m
Waning Crescent, 0% of the Moon is Illuminated
Mar 30
Waning Crescent
Mar 30
New
Apr 7
First Quarter
Apr 15
Full
Apr 22
Last Quarter

Hourly Weather History & Observations

Time (MDT) Temp. Windchill Dew Point Humidity Pressure Visibility Wind Dir Wind Speed Gust Speed Precip Events Conditions
12:53 AM 39.0 °F 36.8 °F 37.9 °F 96% 29.80 in 10.0 mi SSW 3.5 mph - 0.02 in   Overcast
1:53 AM 39.0 °F 34.0 °F 37.0 °F 93% 29.78 in 10.0 mi SW 6.9 mph - 0.00 in   Overcast
2:10 AM 39.0 °F 32.8 °F 37.9 °F 96% 29.81 in 10.0 mi WSW 9.2 mph - 0.00 in Rain Light Rain
2:38 AM 37.9 °F 29.2 °F 37.0 °F 97% 29.80 in 9.0 mi SW 15.0 mph - 0.02 in Rain Light Rain
2:53 AM 37.0 °F 28.5 °F 36.0 °F 96% 29.78 in 10.0 mi SW 13.8 mph - 0.02 in Rain Light Rain
3:53 AM 36.0 °F 27.1 °F 35.1 °F 97% 29.74 in 10.0 mi SW 13.8 mph - 0.00 in Rain Light Rain
4:42 AM 33.1 °F 24.9 °F 33.1 °F 100% 29.74 in 3.0 mi WSW 10.4 mph - 0.03 in Snow Light Snow
4:46 AM 33.1 °F 25.5 °F 33.1 °F 100% 29.74 in 2.5 mi WSW 9.2 mph - 0.04 in Snow Light Snow
4:53 AM 33.1 °F 26.1 °F 33.1 °F 100% 29.73 in 2.5 mi SW 8.1 mph - 0.04 in Snow Light Snow
5:05 AM 33.1 °F 26.1 °F 33.1 °F 100% 29.74 in 1.2 mi SW 8.1 mph - 0.03 in Snow Light Snow
5:30 AM 33.1 °F 26.1 °F 33.1 °F 100% 29.73 in 2.0 mi SW 8.1 mph - 0.05 in Snow Light Snow
5:40 AM 33.1 °F 25.5 °F 32.0 °F 96% 29.73 in 1.2 mi SW 9.2 mph - 0.06 in Snow Light Snow
5:51 AM 33.8 °F 27.0 °F 32.0 °F 93% 29.73 in 1.0 mi SW 8.1 mph - 0.08 in Snow Light Snow
5:53 AM 33.1 °F 25.5 °F 32.0 °F 96% 29.73 in 1.0 mi SSW 9.2 mph - 0.09 in Snow Light Snow
6:53 AM 33.1 °F 25.5 °F 32.0 °F 96% 29.72 in 1.0 mi SSW 9.2 mph - 0.11 in Snow Light Snow
7:53 AM 33.1 °F 24.4 °F 32.0 °F 96% 29.72 in 1.0 mi SW 11.5 mph - 0.07 in Snow Light Snow
8:53 AM 33.1 °F 23.9 °F 32.0 °F 96% 29.70 in 1.2 mi SW 12.7 mph - 0.05 in Snow Light Snow
9:53 AM 32.0 °F 21.2 °F 32.0 °F 100% 29.71 in 0.2 mi SW 16.1 mph - 0.10 in Fog , Snow Heavy Snow
10:32 AM 33.1 °F 23.0 °F 33.1 °F 100% 29.69 in 1.0 mi WSW 15.0 mph - 0.08 in Snow Light Snow
10:53 AM 33.1 °F 23.4 °F 33.1 °F 100% 29.72 in 1.0 mi SW 13.8 mph - 0.09 in Snow Light Snow
11:53 AM 33.1 °F 23.9 °F 32.0 °F 96% 29.73 in 1.0 mi WSW 12.7 mph - 0.07 in Snow Light Snow
12:29 PM 33.1 °F 24.9 °F 33.1 °F 100% 29.71 in 1.0 mi WSW 10.4 mph - 0.04 in Snow Light Snow
12:53 PM 33.1 °F 25.5 °F 33.1 °F 100% 29.73 in 1.0 mi WSW 9.2 mph - 0.06 in Snow Light Snow
1:08 PM 33.1 °F 26.9 °F 33.1 °F 100% 29.71 in 1.0 mi WSW 6.9 mph - 0.01 in Snow Light Snow
1:21 PM 33.1 °F 26.1 °F 33.1 °F 100% 29.71 in 1.0 mi SW 8.1 mph - 0.02 in Snow Light Snow
1:31 PM 33.1 °F 25.5 °F 33.1 °F 100% 29.71 in 0.5 mi SW 9.2 mph - 0.04 in Fog , Snow Snow
1:42 PM 33.1 °F 25.5 °F 33.1 °F 100% 29.72 in 0.8 mi SW 9.2 mph - 0.04 in Snow Light Snow
1:53 PM 33.1 °F 25.5 °F 33.1 °F 100% 29.75 in 0.8 mi SW 9.2 mph - 0.05 in Snow Light Snow
2:04 PM 33.1 °F 26.1 °F 33.1 °F 100% 29.72 in 1.0 mi SW 8.1 mph - 0.01 in Snow Light Snow
2:22 PM 33.1 °F 26.1 °F 33.1 °F 100% 29.73 in 1.0 mi SW 8.1 mph - 0.02 in Snow Light Snow
2:27 PM 33.1 °F 26.1 °F 33.1 °F 100% 29.73 in 0.8 mi SW 8.1 mph - 0.02 in Snow Light Snow
2:53 PM 33.1 °F 26.9 °F 33.1 °F 100% 29.75 in 1.0 mi SW 6.9 mph - 0.04 in Snow Light Snow
3:10 PM 33.1 °F 26.9 °F 33.1 °F 100% 29.72 in 1.0 mi WSW 6.9 mph - 0.01 in Snow Light Snow
3:19 PM 33.1 °F 25.5 °F 33.1 °F 100% 29.72 in 0.8 mi SW 9.2 mph - 0.02 in Snow Light Snow
3:23 PM 33.1 °F 24.9 °F 33.1 °F 100% 29.73 in 1.0 mi SW 10.4 mph - 0.02 in Snow Light Snow
3:38 PM 34.0 °F 26.0 °F 33.1 °F 96% 29.73 in 2.5 mi SW 10.4 mph - 0.02 in Snow Light Snow
3:53 PM 34.0 °F 26.6 °F 33.1 °F 96% 29.76 in 2.0 mi SW 9.2 mph - 0.02 in Snow Light Snow
4:11 PM 34.0 °F 27.2 °F 33.1 °F 96% 29.73 in 5.0 mi SW 8.1 mph - 0.01 in Snow Light Snow
4:28 PM 34.0 °F 26.6 °F 33.1 °F 96% 29.73 in 7.0 mi SSW 9.2 mph - 0.01 in Rain Light Rain
4:39 PM 34.0 °F 27.2 °F 34.0 °F 100% 29.73 in 7.0 mi SSW 8.1 mph - 0.01 in Rain Light Rain
4:53 PM 34.0 °F 26.6 °F 34.0 °F 100% 29.77 in 9.0 mi SSW 9.2 mph - 0.01 in Rain Light Rain
5:24 PM 34.0 °F 25.5 °F 33.1 °F 96% 29.74 in 10.0 mi SSW 11.5 mph - 0.00 in Rain Light Rain
5:53 PM 35.1 °F 26.9 °F 33.1 °F 92% 29.79 in 10.0 mi SSW 11.5 mph - 0.00 in   Overcast
6:53 PM 35.1 °F 26.9 °F 33.1 °F 92% 29.81 in 10.0 mi SSW 11.5 mph - N/A   Mostly Cloudy
7:53 PM 36.0 °F 28.0 °F 32.0 °F 86% 29.83 in 10.0 mi SSW 11.5 mph - N/A   Mostly Cloudy
8:53 PM 36.0 °F 25.3 °F 33.1 °F 89% 29.88 in 10.0 mi SW 19.6 mph - N/A   Overcast
9:53 PM 35.1 °F 25.9 °F 32.0 °F 89% 29.91 in 10.0 mi SSW 13.8 mph - 0.00 in   Overcast
10:53 PM 36.0 °F 24.7 °F 28.0 °F 73% 29.92 in 10.0 mi SW 21.9 mph - N/A   Overcast
11:53 PM 34.0 °F 23.4 °F 28.0 °F 79% 29.98 in 10.0 mi WSW 17.3 mph - 0.00 in   Overcast